When you browse on this site, cookies collect data to enhance your experience and personalize the content and advertising you see.
Visit our Privacy Policy to learn more. By continuing to use the site, you agree to this use of cookies and data.
  • In Latvia
  • List of Countries
  • For 7 days
  • Water Temperature
  • Weather Map
  • Weather Widgets
  • user-avatar
    Login

    Hourly Weather Lubumbashi

    Today, 2 June, Tuesday

    Time Temperature Precipitation Wind Pressure Humidity
    00:00 +37°C° 0 mm 2 mps 718 mmHg 14%
    01:00 +36°C° 0 mm 2 mps 718 mmHg 18%
    02:00 +35°C° 0 mm 2 mps 717 mmHg 22%
    03:00 +34°C° 0 mm 2 mps 718 mmHg 24%
    04:00 +33°C° 0 mm 1 mps 718 mmHg 26%
    05:00 +32°C° 0 mm 1 mps 718 mmHg 27%
    06:00 +34°C° 0 mm 2 mps 719 mmHg 29%
    07:00 +34°C° 0 mm 4 mps 719 mmHg 31%
    08:00 +35°C° 0 mm 5 mps 720 mmHg 33%
    09:00 +36°C° 0 mm 5 mps 720 mmHg 31%
    10:00 +37°C° 0 mm 4 mps 720 mmHg 29%
    11:00 +40°C° 0 mm 4 mps 720 mmHg 27%
    12:00 +40°C° 0 mm 3 mps 719 mmHg 23%
    13:00 +41°C° 0 mm 2 mps 719 mmHg 20%
    14:00 +39°C° 0 mm 0 mps 718 mmHg 16%
    15:00 +42°C° 0 mm 1 mps 718 mmHg 15%
    16:00 +42°C° 0 mm 1 mps 717 mmHg 14%
    17:00 +42°C° 0 mm 2 mps 717 mmHg 13%
    18:00 +42°C° 0 mm 1 mps 717 mmHg 14%
    19:00 +41°C° 0 mm 1 mps 717 mmHg 15%
    20:00 +41°C° 0 mm 1 mps 717 mmHg 15%
    21:00 +40°C° 0 mm 1 mps 717 mmHg 16%
    22:00 +39°C° 0 mm 1 mps 717 mmHg 17%
    23:00 +39°C° 0 mm 2 mps 717 mmHg 18%

    Tomorrow, 3 June, Wednesday

    Time Temperature Precipitation Wind Pressure Humidity
    00:00 +37°C° 0 mm 1 mps 717 mmHg 19%
    01:00 +36°C° 0 mm 1 mps 716 mmHg 21%
    02:00 +35°C° 0 mm 1 mps 716 mmHg 22%
    03:00 +36°C° 0 mm 2 mps 716 mmHg 23%
    04:00 +35°C° 0 mm 3 mps 717 mmHg 24%
    05:00 +35°C° 0 mm 4 mps 717 mmHg 25%
    06:00 +35°C° 0 mm 5 mps 718 mmHg 29%
    07:00 +35°C° 0 mm 5 mps 718 mmHg 33%
    08:00 +35°C° 0 mm 6 mps 719 mmHg 37%
    09:00 +37°C° 0 mm 5 mps 719 mmHg 34%
    10:00 +39°C° 0 mm 5 mps 719 mmHg 32%
    11:00 +41°C° 0 mm 5 mps 719 mmHg 29%
    12:00 +41°C° 0 mm 4 mps 718 mmHg 25%
    13:00 +42°C° 0 mm 3 mps 718 mmHg 22%
    14:00 +42°C° 0 mm 2 mps 717 mmHg 18%
    15:00 +42°C° 0 mm 2 mps 717 mmHg 17%
    16:00 +43°C° 0 mm 2 mps 716 mmHg 15%
    17:00 +43°C° 0 mm 1 mps 716 mmHg 14%
    18:00 +42°C° 0 mm 2 mps 716 mmHg 15%
    19:00 +42°C° 0 mm 2 mps 716 mmHg 15%
    20:00 +42°C° 0 mm 3 mps 716 mmHg 16%
    21:00 +41°C° 0 mm 4 mps 716 mmHg 18%
    22:00 +40°C° 0 mm 5 mps 717 mmHg 20%
    23:00 +39°C° 0 mm 5 mps 717 mmHg 22%

    Day after tomorrow, 4 June, Thursday

    Time Temperature Precipitation Wind Pressure Humidity
    00:00 +38°C° 0 mm 6 mps 717 mmHg 27%
    01:00 +36°C° 0 mm 6 mps 717 mmHg 31%
    02:00 +35°C° 0 mm 7 mps 717 mmHg 36%
    03:00 +34°C° 0 mm 6 mps 717 mmHg 40%
    04:00 +33°C° 0 mm 6 mps 717 mmHg 44%
    05:00 +32°C° 0 mm 5 mps 718 mmHg 48%
    06:00 +33°C° 0 mm 5 mps 718 mmHg 47%
    07:00 +33°C° 0 mm 5 mps 719 mmHg 47%
    08:00 +34°C° 0 mm 5 mps 720 mmHg 46%
    09:00 +35°C° 0 mm 5 mps 720 mmHg 41%
    10:00 +37°C° 0 mm 4 mps 720 mmHg 37%
    11:00 +38°C° 0 mm 4 mps 720 mmHg 32%
    12:00 +39°C° 0 mm 3 mps 719 mmHg 28%
    13:00 +40°C° 0 mm 2 mps 718 mmHg 24%
    14:00 +42°C° 0 mm 2 mps 718 mmHg 21%
    15:00 +42°C° 0 mm 2 mps 717 mmHg 19%
    16:00 +42°C° 0 mm 2 mps 717 mmHg 17%
    17:00 +43°C° 0 mm 2 mps 716 mmHg 16%
    18:00 +42°C° 0 mm 2 mps 717 mmHg 16%
    19:00 +42°C° 0 mm 2 mps 717 mmHg 17%
    20:00 +42°C° 0 mm 3 mps 717 mmHg 17%
    21:00 +40°C° 0 mm 3 mps 717 mmHg 19%
    22:00 +40°C° 0 mm 3 mps 717 mmHg 20%
    23:00 +40°C° 0 mm 4 mps 718 mmHg 22%

    5 June, Friday

    Time Temperature Precipitation Wind Pressure Humidity
    00:00 +37°C° 0 mm 5 mps 717 mmHg 27%
    01:00 +36°C° 0 mm 6 mps 717 mmHg 32%
    02:00 +35°C° 0 mm 7 mps 717 mmHg 37%
    03:00 +34°C° 0 mm 7 mps 717 mmHg 41%
    04:00 +33°C° 0 mm 7 mps 718 mmHg 44%
    05:00 +33°C° 0 mm 7 mps 718 mmHg 48%
    06:00 +33°C° 0 mm 6 mps 719 mmHg 47%
    07:00 +34°C° 0 mm 6 mps 719 mmHg 46%
    08:00 +34°C° 0 mm 6 mps 720 mmHg 45%
    09:00 +36°C° 0 mm 6 mps 720 mmHg 40%
    10:00 +39°C° 0 mm 6 mps 720 mmHg 35%
    11:00 +41°C° 0 mm 5 mps 720 mmHg 30%
    12:00 +42°C° 0 mm 5 mps 720 mmHg 26%
    13:00 +43°C° 0 mm 4 mps 719 mmHg 22%
    14:00 +44°C° 0 mm 3 mps 718 mmHg 19%
    15:00 +44°C° 0 mm 3 mps 718 mmHg 17%
    16:00 +43°C° 0 mm 2 mps 717 mmHg 15%
    17:00 +43°C° 0 mm 2 mps 716 mmHg 14%
    18:00 +43°C° 0 mm 2 mps 717 mmHg 14%
    19:00 +42°C° 0 mm 2 mps 717 mmHg 15%
    20:00 +42°C° 0 mm 2 mps 717 mmHg 15%
    21:00 +42°C° 0 mm 3 mps 717 mmHg 17%
    22:00 +41°C° 0 mm 4 mps 718 mmHg 19%
    23:00 +40°C° 0 mm 5 mps 718 mmHg 20%

    6 June, Saturday

    Time Temperature Precipitation Wind Pressure Humidity
    00:00 +39°C° 0 mm 6 mps 718 mmHg 27%
    01:00 +38°C° 0 mm 7 mps 717 mmHg 34%
    02:00 +37°C° 0 mm 9 mps 717 mmHg 41%
    03:00 +35°C° 0 mm 8 mps 718 mmHg 43%
    04:00 +34°C° 0 mm 7 mps 718 mmHg 44%
    05:00 +34°C° 0 mm 7 mps 718 mmHg 46%
    06:00 +34°C° 0 mm 7 mps 719 mmHg 45%
    07:00 +34°C° 0 mm 7 mps 719 mmHg 44%
    08:00 +35°C° 0 mm 7 mps 720 mmHg 43%
    09:00 +38°C° 0 mm 7 mps 720 mmHg 38%
    10:00 +39°C° 0 mm 7 mps 720 mmHg 34%
    11:00 +41°C° 0 mm 7 mps 720 mmHg 29%
    12:00 +42°C° 0 mm 6 mps 719 mmHg 26%
    13:00 +44°C° 0 mm 6 mps 718 mmHg 23%
    14:00 +45°C° 0 mm 5 mps 718 mmHg 20%
    15:00 +44°C° 0 mm 4 mps 717 mmHg 18%
    16:00 +43°C° 0 mm 2 mps 717 mmHg 17%
    17:00 +43°C° 0 mm 1 mps 716 mmHg 15%
    18:00 +42°C° 0 mm 2 mps 716 mmHg 17%
    19:00 +42°C° 0 mm 3 mps 716 mmHg 19%
    20:00 +41°C° 0 mm 5 mps 716 mmHg 21%
    21:00 +40°C° 0 mm 5 mps 716 mmHg 23%
    22:00 +39°C° 0 mm 5 mps 717 mmHg 26%
    23:00 +39°C° 0 mm 6 mps 717 mmHg 28%

    7 June, Sunday

    Time Temperature Precipitation Wind Pressure Humidity
    00:00 +36°C° 0.2 mm 7 mps 717 mmHg 35%
    01:00 +35°C° 0.2 mm 9 mps 717 mmHg 41%
    02:00 +33°C° 0.2 mm 10 mps 717 mmHg 47%
    03:00 +33°C° 0 mm 8 mps 717 mmHg 47%
    04:00 +33°C° 0 mm 7 mps 717 mmHg 46%
    05:00 +33°C° 0 mm 5 mps 718 mmHg 45%
    06:00 +33°C° 0 mm 5 mps 718 mmHg 45%
    07:00 +33°C° 0 mm 5 mps 719 mmHg 45%
    08:00 +33°C° 0 mm 5 mps 719 mmHg 45%
    09:00 +35°C° 0 mm 5 mps 719 mmHg 41%
    10:00 +36°C° 0 mm 6 mps 720 mmHg 36%
    11:00 +39°C° 0 mm 6 mps 720 mmHg 31%
    12:00 +40°C° 0 mm 6 mps 719 mmHg 28%
    13:00 +41°C° 0 mm 5 mps 718 mmHg 26%
    14:00 +42°C° 0 mm 5 mps 717 mmHg 23%
    15:00 +42°C° 0 mm 4 mps 717 mmHg 22%
    16:00 +42°C° 0 mm 4 mps 716 mmHg 21%
    17:00 +43°C° 0 mm 4 mps 716 mmHg 20%
    18:00 +42°C° 0 mm 3 mps 716 mmHg 21%
    19:00 +40°C° 0 mm 3 mps 716 mmHg 21%
    20:00 +40°C° 0 mm 2 mps 716 mmHg 22%
    21:00 +40°C° 0 mm 4 mps 716 mmHg 24%
    22:00 +39°C° 0 mm 5 mps 717 mmHg 27%
    23:00 +39°C° 0 mm 6 mps 717 mmHg 29%
    Show more